Station CAPL1 - 8768094 - Calcasieu Pass, LA Image indicating link to RSS feed of recent meteorological observations for station CAPL1


Conditions at CAPL1 as of
(4:00 pm CDT)
2100 GMT on 05/30/2024:
     

Click on the graph icon in the table below to see a time series plot of the last five days of that observation.

5-day plot - Wind Direction Wind Direction (WDIR):SSE ( 160 deg true )
5-day plot - Wind Speed Wind Speed (WSPD): 9.9 kts
5-day plot - Wind Gust Wind Gust (GST): 13.0 kts
5-day plot - Atmospheric Pressure Atmospheric Pressure (PRES):29.96 in
5-day plot - Pressure Tendency Pressure Tendency (PTDY):-0.06 in ( Falling )
5-day plot - Air Temperature Air Temperature (ATMP): 83.1 °F
5-day plot - Water Temperature Water Temperature (WTMP): 82.9 °F
5-day plot - Wind Speed at 10 Meters Wind Speed at 10 meters (WSPD10M): 9.7 kts
5-day plot - Wind Speed at 20 Meters Wind Speed at 20 meters (WSPD20M): 11.7 kts
5-day plot -  Wind Speed, Wind Gust and Atmospheric Pressure Combined plot of Wind Speed, Gust, and Air Pressure
NOS Water Level Observation Network Water Level
Previous observations
TIME
(CDT)
5-day plot - Wind Direction
WDIR
 
5-day plot - Wind Speed
WSPD
kts
5-day plot - Wind Gust
GST
kts
5-day plot - Wave Height
WVHT
ft
5-day plot - Dominant Wave Period
DPD
sec
5-day plot - Average Wave Period
APD
sec
5-day plot - Mean Wave Direction
MWD
 
5-day plot - Atmospheric Pressure
PRES
in
5-day plot - Pressure Tendency
PTDY
in
5-day plot - Air Temperature
ATMP
°F
5-day plot - Water Temperature
WTMP
°F
5-day plot - Dew Point
DEWP
°F
5-day plot - Salinity
SAL
psu
5-day plot - Visibility
VIS
nmi
5-day plot - Tide (above MLLW)
TIDE
ft
2024-05-30 03:54 pmSSE 9.9 13.0----29.96- 83.5 82.9----
2024-05-30 03:48 pmSSE 9.9 12.0----29.96-- 82.8----
2024-05-30 03:42 pmSSE 9.9 12.0----29.97-- 82.8----
2024-05-30 03:36 pmSSE 8.9 14.0----29.97-- 82.8----
2024-05-30 03:30 pmSSE 8.9 11.1----29.98- 83.7 82.8----
2024-05-30 03:24 pmSSE 8.9 11.1----29.98- 83.3 82.8----
2024-05-30 03:18 pmSSE 8.9 11.1----29.98- 83.3 82.8----
2024-05-30 03:12 pm S 9.9 12.0----29.98- 83.5 82.9----
2024-05-30 03:06 pmSSE 9.9 12.0----29.98- 83.7 82.9----
2024-05-30 03:00 pm S 8.9 14.0----29.98-0.05 83.5 82.8----
2024-05-30 02:54 pmSSE 9.9 13.0----29.98- 83.7 82.6----
2024-05-30 02:48 pmSSE 9.9 14.0----29.98- 83.5 82.8----
2024-05-30 02:42 pm S 9.9 12.0----29.98- 83.1 82.9----
2024-05-30 02:36 pmSSE 8.0 13.0----29.99- 83.7 82.8----
2024-05-30 02:30 pmSSE 8.9 13.0----29.99- 83.3 82.6----
2024-05-30 02:24 pmSSE 8.9 12.0----29.99- 83.5 82.2----
2024-05-30 02:18 pmSSE 8.0 9.9----30.00- 83.3 82.4----
2024-05-30 02:12 pmSSE 8.9 12.0----30.00- 82.9 82.6----
2024-05-30 02:06 pmSSE 9.9 12.0----30.00- 83.3 82.6----
2024-05-30 02:00 pm SE 8.9 12.0----30.00-0.03 83.5 82.8----
2024-05-30 01:54 pmSSE 8.9 11.1----30.00- 82.9 82.6----
2024-05-30 01:48 pmSSE 8.0 11.1----30.01- 83.3 82.2----
2024-05-30 01:42 pmSSE 8.9 9.9----30.01- 82.9 82.0----
2024-05-30 01:36 pmSSE 6.0 11.1----30.01- 83.5 82.0----
2024-05-30 01:30 pm SE 7.0 8.9----30.01- 83.3 82.0----
2024-05-30 01:24 pmSSE 8.0 11.1----30.01- 82.9 81.9----
2024-05-30 01:18 pm SE 8.0 9.9----30.01- 83.1 81.9----
2024-05-30 01:12 pmSSE 8.0 11.1----30.01- 82.9 81.9----
2024-05-30 01:06 pm SE 8.0 9.9----30.02- 83.3 81.9----
2024-05-30 01:00 pm SE 8.0 9.9----30.02+0.00 83.3 81.7----
2024-05-30 12:54 pm SE 8.0 11.1----30.03- 83.1 81.7----
2024-05-30 12:48 pm SE 9.9 12.0----30.03-- 81.7----
2024-05-30 12:42 pm SE 8.9 11.1----30.03-- 81.7----
2024-05-30 12:36 pm SE 8.0 11.1----30.03-- 81.7----
2024-05-30 12:30 pm SE 8.0 12.0----30.03- 83.1 81.7----
2024-05-30 12:24 pm SE 8.0 11.1----30.03- 82.8 81.7----
2024-05-30 12:18 pm SE 9.9 12.0----30.03- 82.6 81.7----
2024-05-30 12:12 pm SE 8.9 12.0----30.03- 82.8 81.7----
2024-05-30 12:06 pm SE 8.9 11.1----30.03- 82.6 81.7----
2024-05-30 12:00 pm SE 8.0 12.0----30.03+0.01 82.8 81.7----
2024-05-30 11:54 am SE 9.9 12.0----30.03- 82.4 81.7----
2024-05-30 11:48 am SE 8.9 11.1----30.03- 82.8 81.7----
2024-05-30 11:42 am SE 8.9 12.0----30.03- 82.4 81.7----
2024-05-30 11:36 am SE 9.9 12.0----30.03- 82.2 81.7----
2024-05-30 11:30 am SE 8.9 11.1----30.03- 82.2 81.7----
2024-05-30 11:24 am SE 9.9 12.0----30.03- 82.2 81.7----
2024-05-30 11:18 am SE 8.9 13.0----30.03- 82.6 81.7----
2024-05-30 11:12 am SE 8.9 11.1----30.03- 82.6 81.7----
2024-05-30 11:06 am SE 8.9 11.1----30.03- 82.4 81.7----
2024-05-30 11:00 amESE 8.0 11.1----30.03+0.01 82.4 81.7----
2024-05-30 10:54 am SE 8.9 9.9----30.03- 82.0 81.7----
2024-05-30 10:48 amESE 8.0 12.0----30.03-- 81.7----
2024-05-30 10:42 am SE 8.0 11.1----30.03-- 81.7----
2024-05-30 10:36 am SE 8.9 12.0----30.03-- 81.7----
2024-05-30 10:30 am SE 8.9 13.0----30.03- 82.0 81.7----
2024-05-30 10:24 am SE 8.9 11.1----30.03- 81.9 81.7----
2024-05-30 10:18 am SE 8.9 11.1----30.03- 81.9 81.7----
2024-05-30 10:12 amESE 8.9 12.0----30.03- 81.7 81.7----
2024-05-30 10:06 am SE 9.9 11.1----30.03- 81.5 81.5----
2024-05-30 10:00 am SE 8.9 13.0----30.03+0.01 81.5 81.5----
2024-05-30 09:54 am SE 9.9 12.0----30.03- 81.3 81.5----
2024-05-30 09:48 amESE 8.9 11.1----30.03- 80.8 81.3----
2024-05-30 09:42 amESE 8.9 12.0----30.03- 80.8 81.3----
2024-05-30 09:36 amESE 9.9 12.0----30.03- 80.2 81.3----
2024-05-30 09:30 amESE 8.0 11.1----30.03- 80.4 81.1----
2024-05-30 09:24 amESE 8.9 11.1----30.03- 80.2 81.1----
2024-05-30 09:18 amESE 9.9 12.0----30.03- 79.9 81.1----
2024-05-30 09:12 amESE 8.0 9.9----30.03- 80.1 81.1----
2024-05-30 09:06 amESE 7.0 8.0----30.03- 81.0 81.1----
2024-05-30 09:00 amESE 6.0 7.0----30.02+0.04 81.0 81.1----
2024-05-30 08:54 am E 5.1 6.0----30.02- 80.4 81.3----
2024-05-30 08:48 am E 5.1 6.0----30.03- 80.1 81.1----
2024-05-30 08:42 am E 5.1 6.0----30.02- 79.9 81.0----
2024-05-30 08:36 am E 5.1 6.0----30.02- 79.5 81.1----
2024-05-30 08:30 am E 5.1 7.0----30.02- 79.3 81.0----
2024-05-30 08:24 amESE 6.0 7.0----30.02- 79.5 81.0----
2024-05-30 08:18 am E 4.1 6.0----30.02- 80.1 81.0----
2024-05-30 08:12 am E 5.1 6.0----30.02- 79.9 81.0----
2024-05-30 08:06 amSSE 5.1 5.1----30.02- 81.5 80.8----
2024-05-30 08:00 amSSE 5.1 7.0----30.02- 81.3 80.8----
2024-05-30 07:54 amSSE 5.1 8.0----30.02- 81.1 80.8----
2024-05-30 07:48 amSSE 6.0 7.0----30.02- 81.0 80.6----
2024-05-30 07:42 amSSE 5.1 8.0----30.02- 80.8 80.6----
2024-05-30 07:36 am S 5.1 6.0----30.02- 80.6 80.6----
2024-05-30 07:30 amSSE 6.0 8.0----30.02- 80.6 80.6----
2024-05-30 07:24 amSSE 7.0 8.0----30.02- 80.6 80.8----
2024-05-30 07:18 amSSE 6.0 8.9----30.02- 80.6 80.8----
2024-05-30 07:12 amSSE 6.0 9.9----30.02- 80.8 80.8----
2024-05-30 07:06 amSSE 8.0 9.9----30.02- 80.8 80.8----
2024-05-30 07:00 amSSE 7.0 11.1----30.02- 80.6 80.8----
2024-05-30 06:54 am S 8.0 14.0----30.02- 80.6 80.8----
2024-05-30 06:48 am S 12.0 15.0----30.01-- 80.8----
2024-05-30 06:42 am S 11.1 15.0----30.01-- 80.8----
2024-05-30 06:36 am S 13.0 15.9----30.01-- 80.8----
2024-05-30 06:30 am S 12.0 14.0----30.00- 80.8 80.8----
2024-05-30 06:24 am S 8.9 12.0----30.00- 80.2 80.8----
2024-05-30 06:18 amSSE 9.9 15.0----30.00- 80.2 80.8----
2024-05-30 06:12 am S 13.0 15.0----29.99- 80.2 80.8----
2024-05-30 06:06 am S 12.0 15.0----29.99- 80.4 80.8----
2024-05-30 06:00 am S 12.0 18.1----29.99- 80.6 80.8----
2024-05-30 05:54 am S 12.0 15.0----29.98- 80.6 80.8----
2024-05-30 05:48 amSSE 9.9 14.0----29.98- 80.2 81.0----
2024-05-30 05:42 amSSE 11.1 13.0----29.98- 80.2 81.0----
2024-05-30 05:36 am S 9.9 13.0----29.98- 79.9 81.0----
2024-05-30 05:30 amSSE 11.1 15.0----29.98- 80.1 81.0----
2024-05-30 05:24 amSSE 9.9 15.0----29.98- 80.1 81.0----
2024-05-30 05:18 amSSE 9.9 15.0----29.98- 80.1 81.0----
2024-05-30 05:12 amSSE 12.0 15.9----29.98- 80.2 81.0----
2024-05-30 05:06 amSSE 12.0 15.0----29.98- 80.2 81.0----
2024-05-30 05:00 amSSE 12.0 15.0----29.98-0.02 80.1 81.0----
2024-05-30 04:54 amSSE 11.1 17.1----29.98- 80.1 81.0----
2024-05-30 04:48 amSSE 14.0 18.1----29.98- 79.9 81.0----
2024-05-30 04:42 amSSE 13.0 15.9----29.98- 79.7 81.0----
2024-05-30 04:36 amSSE 12.0 15.0----29.98- 79.5 81.0----
2024-05-30 04:30 amSSE 11.1 17.1----29.98- 79.2 81.0----
2024-05-30 04:24 am SE 6.0 14.0----29.99- 78.6 81.0----
2024-05-30 04:18 am SE 12.0 15.0----29.98- 78.3 81.0----
2024-05-30 04:12 am SE 8.0 11.1----29.99- 78.1 81.1----
2024-05-30 04:06 am SE 8.0 13.0----29.99- 78.4 81.0----
2024-05-30 04:00 am SE 11.1 14.0----29.99+0.02 78.8 81.1----
2024-05-30 03:54 am SE 7.0 12.0----30.00- 78.3 81.1----
2024-05-30 03:48 am SE 9.9 12.0----29.99-- 81.1----
2024-05-30 03:42 am SE 9.9 15.9----30.00-- 81.1----
2024-05-30 03:36 am SE 13.0 18.1----30.00-- 81.1----
2024-05-30 03:30 am SE 15.9 20.0----30.00- 78.1 81.1----
2024-05-30 03:24 am SE 14.0 17.1----29.99- 78.6 81.3----
2024-05-30 03:18 am SE 15.0 18.1----29.99- 79.2 81.3----
2024-05-30 03:12 am SE 13.0 17.1----30.00- 79.9 81.3----
2024-05-30 03:06 amSSE 9.9 18.1----30.00- 79.9 81.5----
2024-05-30 03:00 am SE 8.9 11.1----30.00+0.01 80.2 81.5----
2024-05-30 02:54 am SE 7.0 8.9----30.00- 79.5 81.5----
2024-05-30 02:48 amESE 8.0 8.9----29.99-- 81.5----
2024-05-30 02:42 am SE 8.0 11.1----29.98-- 81.7----
2024-05-30 02:36 am SE 11.1 12.0----29.98-- 81.7----
2024-05-30 02:30 amSSE 5.1 6.0----29.98- 80.2 81.7----
2024-05-30 02:24 amSSE 5.1 7.0----29.98- 80.4 81.7----
2024-05-30 02:18 am SE 7.0 12.0----29.98- 80.4 81.7----
2024-05-30 02:12 am SE 8.9 12.0----29.99- 80.6 81.7----
2024-05-30 02:06 am E 7.0 12.0----29.99- 80.4 81.7----
2024-05-30 02:00 am NE 4.1 7.0----30.00-0.05 80.6 81.7----
2024-05-30 01:54 amNNE 6.0 11.1----30.00- 78.1 81.7----
2024-05-30 01:48 amNNE 8.0 9.9----30.00- 78.4 81.7----
2024-05-30 01:42 am S 5.1 12.0----29.99- 80.8 81.7----
2024-05-30 01:36 am S 8.9 15.9----29.98- 80.2 81.7----
2024-05-30 01:30 am S 13.0 17.1----29.98- 80.8 81.9----
2024-05-30 01:24 am S 11.1 17.1----29.98- 80.2 81.7----
2024-05-30 01:18 amSSE 13.0 18.1----29.96- 80.6 81.9----
2024-05-30 01:12 amSSE 13.0 17.1----29.96- 80.4 81.7----
2024-05-30 01:06 amSSE 12.0 17.1----29.96- 80.1 81.7----
2024-05-30 01:00 am S 14.0 20.0----29.97-0.09 79.7 81.9----
2024-05-30 12:54 am S 13.0 18.1----29.98- 81.3 81.9----
2024-05-30 12:48 amSSE 15.0 19.0----29.98-- 81.9----
2024-05-30 12:42 amSSE 15.0 22.9----29.98-- 81.9----
2024-05-30 12:36 amSSE 15.0 21.0----29.98-- 82.0----
2024-05-30 12:30 amSSE 18.1 22.0----29.97- 80.6 81.9----
2024-05-30 12:24 amSSE 17.1 26.0----29.98- 79.7 82.2----
2024-05-30 12:18 am S 22.9 28.9----29.99- 78.4 82.0----
2024-05-30 12:12 am S 25.1 28.9----29.99- 77.4 82.0----
2024-05-30 12:06 am S 22.0 26.0----29.98- 77.2 82.0----
2024-05-30 12:00 amSSE 19.0 25.1----29.99-0.01 79.3 82.0----
2024-05-29 11:54 pm S 20.0 25.1----29.99- 78.8 82.0----
2024-05-29 11:48 pm S 20.0 28.0----30.01-- 82.0----
2024-05-29 11:42 pm S 19.0 26.0----30.03-- 82.0----
2024-05-29 11:36 pmSSW 19.0 21.0----30.04-- 82.0----
2024-05-29 11:30 pmSSW 22.9 26.0----30.05- 75.9 82.0----
2024-05-29 11:24 pmSSW 8.9 9.9----30.06- 77.4 82.0----
2024-05-29 11:18 pm S 7.0 8.0----30.07- 77.0 82.2----
2024-05-29 11:12 pm SE 5.1 7.0----30.06- 76.1 82.2----
2024-05-29 11:06 pmSSE 5.1 8.9----30.06- 76.3 82.4----
2024-05-29 11:00 pmSSE 7.0 9.9----30.05+0.03 76.1 82.6----
2024-05-29 10:54 pmSSE 8.0 15.9----30.06- 75.7 82.6----
2024-05-29 10:48 pmSSE 11.1 15.9----30.06- 75.2 82.6----
2024-05-29 10:42 pm SE 8.9 13.0----30.04- 74.3 82.6----
2024-05-29 10:36 pm SE 12.0 19.0----30.05- 73.8 82.6----
2024-05-29 10:30 pmSSE 18.1 21.0----30.07- 74.3 82.6----
2024-05-29 10:24 pmSSE 17.1 22.0----30.06- 73.4 82.6----
2024-05-29 10:18 pm SE 15.9 22.0----30.05- 71.6 82.4----
2024-05-29 10:12 pm SE 15.9 21.0----30.05- 71.6 82.2----
2024-05-29 10:06 pm SE 17.1 20.0----30.04- 70.0 82.2----
2024-05-29 10:00 pmESE 13.0 15.9----30.06+0.06 68.5 82.2----
2024-05-29 09:54 pm NE 2.9 8.9----30.08- 68.9 82.2----
2024-05-29 09:48 pm NE 7.0 13.0----30.08- 68.9 82.4----
2024-05-29 09:42 pm E 13.0 24.1----30.07- 68.9 82.6----
2024-05-29 09:36 pmENE 17.1 28.0----30.05- 73.0 82.6----
2024-05-29 09:30 pmENE 19.0 25.1----30.03- 74.8 82.8----
2024-05-29 09:24 pmENE 15.9 29.9----30.01- 75.4 82.4----
2024-05-29 09:18 pm E 25.1 35.9----29.98- 72.3 82.4----
2024-05-29 09:12 pm E 26.0 33.0----29.99- 71.1 82.6----
2024-05-29 09:06 pm E 19.0 27.0----30.01- 77.9 82.8----
2024-05-29 09:00 pm E 13.0 20.0----30.01+0.00 79.9 82.8----
2024-05-29 08:54 pm NE 15.9 21.0----30.01- 78.1 82.9----
2024-05-29 08:48 pmESE 9.9 13.0----30.02- 80.4 82.9----
2024-05-29 08:42 pmESE 12.0 14.0----30.02- 80.2 82.9----
2024-05-29 08:36 pmESE 11.1 15.0----30.02- 80.4 82.9----
2024-05-29 08:30 pm SE 9.9 12.0----30.01- 80.2 82.9----
2024-05-29 08:24 pmESE 9.9 12.0----30.01- 79.7 82.9----
2024-05-29 08:18 pmESE 12.0 14.0----30.02- 79.3 82.9----
2024-05-29 08:12 pmESE 8.9 14.0----30.01- 78.8 82.9----
2024-05-29 08:06 pmESE 8.0 14.0----30.01- 78.6 82.9----
2024-05-29 08:00 pmESE 11.1 15.0----30.02+0.02 78.8 82.9----
2024-05-29 07:54 pm E 9.9 15.0----30.02- 79.5 82.9----
2024-05-29 07:48 pm SE 8.0 9.9----30.01- 81.9 82.9----
2024-05-29 07:42 pmSSE 7.0 12.0----30.01- 81.9 82.9----
2024-05-29 07:36 pmSSE 8.0 9.9----30.01- 82.0 82.9----
2024-05-29 07:30 pmSSE 8.0 12.0----30.01- 82.0 82.9----
2024-05-29 07:24 pmSSE 11.1 12.0----30.01- 82.0 82.9----
2024-05-29 07:18 pmSSE 8.0 11.1----30.02- 82.0 82.9----
2024-05-29 07:12 pmSSE 7.0 11.1----30.01- 82.0 82.9----
2024-05-29 07:06 pmSSE 8.0 9.9----30.01- 82.0 82.9----
2024-05-29 07:00 pmSSE 8.0 12.0----30.01+0.00 82.0 82.9----
2024-05-29 06:54 pmSSE 7.0 12.0----30.01- 82.0 82.9----
2024-05-29 06:48 pm S 8.9 11.1----30.00-- 82.9----
2024-05-29 06:42 pmSSE 8.0 11.1----30.00-- 82.9----
2024-05-29 06:36 pmSSE 8.9 9.9----30.00-- 82.9----
2024-05-29 06:30 pm S 8.9 11.1----29.99- 82.0 82.9----
2024-05-29 06:24 pm S 9.9 12.0----29.99- 82.0 82.9----
2024-05-29 06:18 pm S 7.0 11.1----29.99- 82.0 82.8----
2024-05-29 06:12 pmSSE 8.9 11.1----29.99- 82.0 82.8----
2024-05-29 06:06 pmSSE 8.0 8.9----30.00- 82.0 82.8----
2024-05-29 06:00 pm S 8.9 9.9----30.00-0.03 82.0 82.8----
2024-05-29 05:54 pm S 8.9 11.1----30.00- 82.2 82.8----
2024-05-29 05:48 pmSSE 8.0 13.0----30.00- 82.4 82.8----
2024-05-29 05:42 pm S 12.0 13.0----30.00- 82.4 82.6----
2024-05-29 05:36 pm S 8.9 12.0----30.00- 82.4 82.6----
2024-05-29 05:30 pm S 9.9 13.0----30.00- 82.6 82.6----
2024-05-29 05:24 pm S 12.0 15.0----30.00- 82.6 82.6----
2024-05-29 05:18 pm S 8.9 11.1----30.00- 82.6 82.8----
2024-05-29 05:12 pm S 8.9 12.0----30.01- 82.8 82.8----
2024-05-29 05:06 pmSSE 9.9 13.0----30.00- 82.6 82.8----
2024-05-29 05:00 pmSSE 9.9 13.0----30.00-0.04 82.4 82.8----
2024-05-29 04:54 pm S 12.0 14.0----30.00- 82.4 82.6----
2024-05-29 04:48 pm S 8.9 14.0----30.01- 82.6 82.6----
2024-05-29 04:42 pm S 12.0 15.0----30.01- 82.6 82.6----
2024-05-29 04:36 pm S 11.1 14.0----30.01- 82.8 82.6----
2024-05-29 04:30 pm S 8.9 14.0----30.01- 83.1 82.6----
2024-05-29 04:24 pm S 8.9 12.0----30.00- 82.8 82.6----
2024-05-29 04:18 pm S 8.9 13.0----30.01- 82.9 82.6----
2024-05-29 04:12 pm S 9.9 12.0----30.01- 82.8 82.6----
2024-05-29 04:06 pmSSE 9.9 15.0----30.01- 82.8 82.6----
2024-05-29 04:00 pmSSE 11.1 14.0----30.01-0.06 82.8 82.6----
2024-05-29 03:54 pmSSE 14.0 18.1----30.01- 82.9 82.4----